Tracking 25693 objects as of 1-Jul-2022
HD Live streaming from Space Station
objects crossing your sky now

DELTA 1 DEB

Track DELTA 1 DEB now!
10-day predictions


NORAD ID: 37639
Int'l Code: 1978-026JA
Perigee: 873.7 km
Apogee: 1,045.5 km
Inclination: 98.8 °
Period: 104.1 minutes
Semi major axis: 7330 km
RCS: 0.0118 m2 (small)
Launch date: March 5, 1978
Source: United States (US)
Launch site: AIR FORCE WESTERN TEST RANGE (AFWTR)

Note: This is SATELLITE DEBRIS
aabbcc
Your satellite tracking list
Your tracking list is empty




NASA's NSSDC Master Catalog

Two Line Element Set (TLE):
1 37639U 78026JA  22181.72473471  .00000035  00000-0  65938-4 0  9993
2 37639  98.7970 151.4161 0117146 347.9423 135.6513 13.83232464510221
Source of the keplerian elements: AFSPC